Content
SEND FEEDBACK

Daily
Averages
Monthly
Summary
United States of America

ST. LOUIS, MISSOURI


Home > North America > United States > Missouri
Elevation: 535 feet     Latitude: 38 45N     Longitude: 090 22W

WEATHER
 
SELECT A DAY
Number of Records: 200,654;   Date Range: 1/1/95 - 11/27/14
 
SHARE

PRINT THIS DATA

[ ← Previous Day ]
WEATHER ALMANAC - MARCH 22, 2013
[ Next Day → ]
[ °C ]   °F
Weather ElementAverageHighLow
Temperature37.5 °F42.1 °F (1:54 pm)33.1 °F (1:54 am)
Dewpoint21.6 °F26.1 °F (10:54 pm)18 °F (1:54 am)
Humidity53.3 %61 % (6:54 am)43 % (1:54 pm)
Barometer30.03 in30.07 in (8:54 am)30.00 in (5:54 pm)
Wind Speed5 mph9.2 mph (2:54 pm)
Weather ElementAverage
Visibility10 mi
Wind DirectionE (90 °)

Weather ElementTotal
Precipitation---
Heating Degree Days27.4 (Base 65)
Averaged from 23 records on March 22, 2013
WEATHER CONDITIONS BREAKOUT
WIND DIRECTION BREAKOUT
WEATHER BY HOUR - MARCH 22, 2013
[ °C ]   °F
Local TimeTemperatureDewpointHumidityBarometerVisibilityWind DirectionWind SpeedGust SpeedPrecipitationEventsConditions
1:54 AM33.1 °F18.0 °F54 %30.04 in10.0 miEast (100°)4.6 mphOvercast
2:54 AM33.1 °F18.0 °F54 %30.05 in10.0 miESE (120°)3.5 mphOvercast
3:54 AM33.1 °F19.0 °F56 %30.02 in10.0 miEast (100°)4.6 mphOvercast
4:54 AM33.1 °F19.9 °F59 %30.02 in10.0 miEast (80°)3.5 mphOvercast
5:54 AM33.1 °F19.9 °F59 %30.03 in10.0 miEast (100°)4.6 mphOvercast
6:54 AM33.1 °F21.0 °F61 %30.04 in10.0 miEast (90°)3.5 mphOvercast
7:54 AM33.1 °F21.0 °F61 %30.05 in10.0 miEast (90°)4.6 mphOvercast
8:54 AM34.0 °F21.0 °F59 %30.07 in10.0 miESE (110°)3.5 mphOvercast
9:54 AM34.0 °F21.0 °F59 %30.07 in10.0 miEast (100°)5.8 mphOvercast
10:54 AM36.0 °F21.0 °F55 %30.06 in10.0 miSSE (150°)4.6 mphOvercast
11:54 AM37.9 °F21.0 °F51 %30.05 in10.0 miEast (80°)5.8 mphOvercast
12:54 PM41.0 °F21.0 °F45 %30.03 in10.0 miVariable3.5 mphOvercast
1:54 PM42.1 °F21.0 °F43 %30.02 in10.0 miSSE (160°)6.9 mphOvercast
2:54 PM42.1 °F21.0 °F43 %30.01 in10.0 miESE (120°)9.2 mphOvercast
3:54 PM42.1 °F21.9 °F45 %30.01 in10.0 miESE (110°)6.9 mphOvercast
4:54 PM41.0 °F21.9 °F47 %30.01 in10.0 miEast (90°)4.6 mphOvercast
5:54 PM41.0 °F21.9 °F47 %30.00 in10.0 miESE (110°)6.9 mphOvercast
6:54 PM41.0 °F23.0 °F49 %30.01 in10.0 miEast (90°)5.8 mphOvercast
7:54 PM39.9 °F25.0 °F55 %30.01 in10.0 miEast (80°)4.6 mphOvercast
8:54 PM39.9 °F24.1 °F53 %30.02 in10.0 miEast (80°)3.5 mphOvercast
9:54 PM39.9 °F25.0 °F55 %30.05 in10.0 miCalmOvercast
10:54 PM39.9 °F26.1 °F58 %30.04 in10.0 miNE (50°)5.8 mphOvercast
11:54 PM39.0 °F25.0 °F57 %30.04 in10.0 miENE (60°)8.1 mphOvercast
Hourly data recorded from KSUS, located miles away from St. Louis, Missouri







STORIES FROM OUR PARTNERS